Weather History for Farmington, NM

Change the Weather History Date:

Saturday, September 29, 2012

  Actual Average Record
Temperature  
Mean Temperature 62 °F -  
Max Temperature 79 °F 75 °F 89 °F (2011)
Min Temperature 45 °F 44 °F 30 °F (1999)
Degree Days  
Heating Degree Days 3    
Growing Degree Days 12 (Base 50)    
Moisture  
Dew Point 35 °F    
Average Humidity 38    
Maximum Humidity 66    
Minimum Humidity 7    
Precipitation  
Precipitation 0.00 in - - ()
Sea Level Pressure  
Sea Level Pressure 30.06 in    
Wind  
Wind Speed 6 mph (NNW)    
Max Wind Speed 21 mph    
Max Gust Speed 28 mph    
Visibility 10 miles    
Events      
Averages and records for this station are not official NWS values.
T = Trace of Precipitation, MM = Missing Value Source: NWS Daily Summary

Daily Weather History Graph

Daily Weather History Graph

Search for Another Location

Airport:

Trip Planner

Search our weather history database for the weather conditions in past years. The results will help you decide how hot, cold, wet, or windy it might be!

Date:

Astronomy

Sep. 29, 2012 Rise Set
Actual Time 7:06 AM MDT 6:58 PM MDT
Civil Twilight 6:41 AM MDT 7:24 PM MDT
Nautical Twilight 6:11 AM MDT 7:54 PM MDT
Astronomical Twilight 5:40 AM MDT 8:24 PM MDT
Moon 6:34 PM MDT 6:40 AM MDT
Length of Visible Light 12h 43m
Length of Day
11h 51m
Full, 100% of the Moon is Illuminated
Sep 29
Full
Sep 29
Full
Oct 8
Last Quarter
Oct 15
New
Oct 21
First Quarter

Hourly Weather History & Observations

Time (MDT) Temp. Windchill Dew Point Humidity Pressure Visibility Wind Dir Wind Speed Gust Speed Precip Events Conditions
12:53 AM 52.0 °F - 33.1 °F 49% 30.02 in 10.0 mi North 4.6 mph - N/A   Clear
1:53 AM 52.0 °F - 34.0 °F 50% 30.03 in 10.0 mi Calm Calm - N/A   Clear
2:53 AM 48.9 °F - 35.1 °F 59% 30.05 in 10.0 mi ENE 5.8 mph - N/A   Clear
3:53 AM 46.9 °F - 33.1 °F 59% 30.05 in 10.0 mi NE 4.6 mph - N/A   Clear
4:53 AM 46.0 °F - 33.1 °F 61% 30.07 in 10.0 mi Calm Calm - N/A   Clear
5:53 AM 48.0 °F - 35.1 °F 61% 30.09 in 10.0 mi East 4.6 mph - N/A   Clear
6:53 AM 46.0 °F 43.1 °F 35.1 °F 66% 30.12 in 10.0 mi East 5.8 mph - N/A   Clear
7:53 AM 50.0 °F - 37.0 °F 61% 30.14 in 10.0 mi East 4.6 mph - N/A   Clear
8:53 AM 55.0 °F - 39.9 °F 57% 30.13 in 10.0 mi ESE 8.1 mph - N/A   Clear
9:53 AM 61.0 °F - 43.0 °F 52% 30.13 in 10.0 mi ESE 6.9 mph - N/A   Clear
10:53 AM 64.9 °F - 46.0 °F 50% 30.13 in 10.0 mi SE 6.9 mph - N/A   Clear
11:53 AM 69.1 °F - 41.0 °F 36% 30.11 in 10.0 mi South 3.5 mph - N/A   Clear
12:53 PM 73.0 °F - 37.0 °F 27% 30.09 in 10.0 mi Variable 6.9 mph - N/A   Clear
1:53 PM 75.0 °F - 35.1 °F 23% 30.05 in 10.0 mi WNW 6.9 mph - N/A   Clear
2:53 PM 77.0 °F - 36.0 °F 23% 30.02 in 10.0 mi WNW 11.5 mph 20.7 mph N/A   Clear
3:53 PM 78.1 °F - 30.0 °F 17% 30.00 in 10.0 mi West 15.0 mph - N/A   Clear
5:53 PM 77.0 °F - 26.1 °F 15% 29.98 in 10.0 mi West 20.7 mph 27.6 mph N/A   Clear
6:53 PM 73.0 °F - 28.9 °F 20% 30.01 in 10.0 mi West 17.3 mph 24.2 mph N/A   Clear
7:53 PM 70.0 °F - 30.9 °F 24% 30.03 in 10.0 mi West 10.4 mph - N/A   Clear
8:53 PM 64.9 °F - 32.0 °F 29% 30.05 in 10.0 mi WNW 6.9 mph - N/A   Clear
9:53 PM 62.1 °F - 32.0 °F 32% 30.05 in 10.0 mi West 4.6 mph - N/A   Clear
10:53 PM 61.0 °F - 32.0 °F 34% 30.04 in 10.0 mi WSW 4.6 mph - N/A   Clear
11:53 PM 61.0 °F - 33.1 °F 35% 30.05 in 10.0 mi NE 5.8 mph - N/A   Clear